EN

Hourly Weather Brufut

Today, 15 April, Thursday

Time Temperature Precipitation Wind Pressure Humidity
00:00 +25°C° 0 mm 3 mps 757 mmHg 66%
01:00 +24°C° 0 mm 3 mps 757 mmHg 68%
02:00 +24°C° 0 mm 3 mps 756 mmHg 71%
03:00 +24°C° 0 mm 3 mps 756 mmHg 72%
04:00 +24°C° 0 mm 3 mps 757 mmHg 73%
05:00 +22°C° 0 mm 3 mps 757 mmHg 73%
06:00 +24°C° 0 mm 3 mps 757 mmHg 67%
07:00 +25°C° 0 mm 2 mps 758 mmHg 60%
08:00 +26°C° 0 mm 2 mps 758 mmHg 54%
09:00 +28°C° 0 mm 3 mps 758 mmHg 48%
10:00 +29°C° 0 mm 3 mps 758 mmHg 42%
11:00 +32°C° 0 mm 4 mps 758 mmHg 35%
12:00 +33°C° 0 mm 4 mps 757 mmHg 34%
13:00 +33°C° 0 mm 5 mps 756 mmHg 32%
14:00 +34°C° 0 mm 6 mps 756 mmHg 30%
15:00 +33°C° 0 mm 6 mps 755 mmHg 38%
16:00 +30°C° 0 mm 6 mps 755 mmHg 45%
17:00 +29°C° 0 mm 7 mps 755 mmHg 52%
18:00 +28°C° 0 mm 7 mps 756 mmHg 58%
19:00 +26°C° 0 mm 7 mps 756 mmHg 65%
20:00 +24°C° 0 mm 7 mps 756 mmHg 71%
21:00 +24°C° 0 mm 6 mps 757 mmHg 72%
22:00 +24°C° 0 mm 6 mps 757 mmHg 73%
23:00 +23°C° 0 mm 5 mps 757 mmHg 74%

Tomorrow, 16 April, Friday

Time Temperature Precipitation Wind Pressure Humidity
00:00 +23°C° 0 mm 5 mps 757 mmHg 74%
01:00 +23°C° 0 mm 5 mps 756 mmHg 75%
02:00 +23°C° 0 mm 5 mps 756 mmHg 76%
03:00 +23°C° 0 mm 4 mps 756 mmHg 76%
04:00 +22°C° 0 mm 4 mps 756 mmHg 76%
05:00 +22°C° 0 mm 3 mps 757 mmHg 76%
06:00 +24°C° 0 mm 3 mps 757 mmHg 69%
07:00 +25°C° 0 mm 4 mps 757 mmHg 61%
08:00 +26°C° 0 mm 4 mps 758 mmHg 54%
09:00 +27°C° 0 mm 5 mps 758 mmHg 50%
10:00 +28°C° 0 mm 5 mps 758 mmHg 46%
11:00 +29°C° 0 mm 5 mps 757 mmHg 42%
12:00 +30°C° 0 mm 6 mps 757 mmHg 41%
13:00 +32°C° 0 mm 6 mps 756 mmHg 41%
14:00 +32°C° 0 mm 7 mps 756 mmHg 40%
15:00 +30°C° 0 mm 7 mps 755 mmHg 45%
16:00 +29°C° 0 mm 8 mps 755 mmHg 51%
17:00 +28°C° 0 mm 8 mps 755 mmHg 56%
18:00 +27°C° 0 mm 8 mps 755 mmHg 62%
19:00 +24°C° 0 mm 8 mps 756 mmHg 68%
20:00 +23°C° 0 mm 8 mps 756 mmHg 75%
21:00 +23°C° 0 mm 8 mps 756 mmHg 75%
22:00 +23°C° 0 mm 8 mps 756 mmHg 76%
23:00 +23°C° 0 mm 8 mps 756 mmHg 77%

Day after tomorrow, 17 April, Saturday

Time Temperature Precipitation Wind Pressure Humidity
00:00 +23°C° 0 mm 7 mps 756 mmHg 77%
01:00 +22°C° 0 mm 7 mps 756 mmHg 77%
02:00 +22°C° 0 mm 7 mps 755 mmHg 77%
03:00 +22°C° 0 mm 6 mps 755 mmHg 77%
04:00 +22°C° 0 mm 5 mps 756 mmHg 77%
05:00 +22°C° 0 mm 5 mps 756 mmHg 77%
06:00 +23°C° 0 mm 4 mps 757 mmHg 69%
07:00 +25°C° 0 mm 4 mps 757 mmHg 62%
08:00 +26°C° 0 mm 4 mps 758 mmHg 55%
09:00 +27°C° 0 mm 4 mps 758 mmHg 49%
10:00 +28°C° 0 mm 4 mps 758 mmHg 43%
11:00 +30°C° 0 mm 4 mps 758 mmHg 38%
12:00 +32°C° 0 mm 5 mps 757 mmHg 36%
13:00 +32°C° 0 mm 5 mps 756 mmHg 34%
14:00 +33°C° 0 mm 6 mps 756 mmHg 33%
15:00 +32°C° 0 mm 7 mps 756 mmHg 40%
16:00 +29°C° 0 mm 7 mps 756 mmHg 47%
17:00 +28°C° 0 mm 7 mps 755 mmHg 55%
18:00 +27°C° 0 mm 7 mps 756 mmHg 62%
19:00 +24°C° 0 mm 7 mps 756 mmHg 69%
20:00 +23°C° 0 mm 7 mps 757 mmHg 76%
21:00 +23°C° 0 mm 7 mps 757 mmHg 76%
22:00 +23°C° 0 mm 7 mps 757 mmHg 77%
23:00 +23°C° 0 mm 7 mps 757 mmHg 77%

18 April, Sunday

Time Temperature Precipitation Wind Pressure Humidity
00:00 +23°C° 0 mm 7 mps 757 mmHg 78%
01:00 +22°C° 0 mm 6 mps 756 mmHg 78%
02:00 +22°C° 0 mm 6 mps 756 mmHg 79%
03:00 +22°C° 0 mm 6 mps 756 mmHg 79%
04:00 +22°C° 0 mm 5 mps 756 mmHg 79%
05:00 +22°C° 0 mm 5 mps 757 mmHg 79%
06:00 +23°C° 0 mm 4 mps 757 mmHg 72%
07:00 +25°C° 0 mm 4 mps 758 mmHg 65%
08:00 +26°C° 0 mm 4 mps 758 mmHg 58%
09:00 +27°C° 0 mm 4 mps 758 mmHg 51%
10:00 +29°C° 0 mm 4 mps 758 mmHg 44%
11:00 +30°C° 0 mm 4 mps 758 mmHg 38%
12:00 +32°C° 0 mm 4 mps 757 mmHg 36%
13:00 +33°C° 0 mm 5 mps 757 mmHg 35%
14:00 +33°C° 0 mm 6 mps 756 mmHg 34%
15:00 +32°C° 0 mm 7 mps 756 mmHg 41%
16:00 +29°C° 0 mm 7 mps 756 mmHg 49%
17:00 +27°C° 0 mm 8 mps 756 mmHg 57%
18:00 +27°C° 0 mm 8 mps 756 mmHg 62%
19:00 +26°C° 0 mm 8 mps 756 mmHg 68%
20:00 +24°C° 0 mm 8 mps 757 mmHg 73%
21:00 +24°C° 0 mm 7 mps 757 mmHg 74%
22:00 +23°C° 0 mm 7 mps 757 mmHg 75%
23:00 +23°C° 0 mm 6 mps 757 mmHg 76%

19 April, Monday

Time Temperature Precipitation Wind Pressure Humidity
00:00 +23°C° 0 mm 6 mps 757 mmHg 77%
01:00 +23°C° 0 mm 5 mps 756 mmHg 78%
02:00 +23°C° 0 mm 5 mps 756 mmHg 78%
03:00 +23°C° 0 mm 4 mps 756 mmHg 78%
04:00 +22°C° 0 mm 4 mps 756 mmHg 79%
05:00 +22°C° 0 mm 3 mps 757 mmHg 79%
06:00 +24°C° 0 mm 3 mps 757 mmHg 70%
07:00 +25°C° 0 mm 3 mps 758 mmHg 62%
08:00 +27°C° 0 mm 2 mps 758 mmHg 53%
09:00 +28°C° 0 mm 3 mps 758 mmHg 47%
10:00 +29°C° 0 mm 4 mps 758 mmHg 41%
11:00 +30°C° 0 mm 4 mps 758 mmHg 35%
12:00 +32°C° 0 mm 5 mps 757 mmHg 34%
13:00 +33°C° 0 mm 5 mps 756 mmHg 33%
14:00 +34°C° 0 mm 6 mps 756 mmHg 32%
15:00 +33°C° 0 mm 6 mps 755 mmHg 39%
16:00 +30°C° 0 mm 7 mps 755 mmHg 45%
17:00 +29°C° 0 mm 7 mps 755 mmHg 51%
18:00 +27°C° 0 mm 8 mps 755 mmHg 59%
19:00 +26°C° 0 mm 8 mps 755 mmHg 66%
20:00 +24°C° 0 mm 8 mps 755 mmHg 74%
21:00 +24°C° 0 mm 8 mps 756 mmHg 74%
22:00 +24°C° 0 mm 7 mps 756 mmHg 75%
23:00 +23°C° 0 mm 7 mps 756 mmHg 75%

20 April, Tuesday

Time Temperature Precipitation Wind Pressure Humidity
00:00 +23°C° 0 mm 6 mps 756 mmHg 76%
01:00 +23°C° 0 mm 5 mps 756 mmHg 77%
02:00 +23°C° 0 mm 4 mps 755 mmHg 78%
03:00 +22°C° 0 mm 3 mps 756 mmHg 80%
04:00 +22°C° 0 mm 3 mps 756 mmHg 82%
05:00 +22°C° 0 mm 3 mps 756 mmHg 84%
06:00 +24°C° 0 mm 3 mps 757 mmHg 77%
07:00 +25°C° 0 mm 2 mps 757 mmHg 69%
08:00 +26°C° 0 mm 2 mps 758 mmHg 61%
09:00 +28°C° 0 mm 3 mps 758 mmHg 54%
10:00 +29°C° 0 mm 3 mps 758 mmHg 47%
11:00 +31°C° 0 mm 3 mps 758 mmHg 39%
12:00 +32°C° 0 mm 4 mps 757 mmHg 38%
13:00 +33°C° 0 mm 5 mps 756 mmHg 37%
14:00 +34°C° 0 mm 6 mps 755 mmHg 36%
15:00 +32°C° 0 mm 6 mps 755 mmHg 42%
16:00 +30°C° 0 mm 6 mps 755 mmHg 48%
17:00 +28°C° 0 mm 7 mps 755 mmHg 55%
18:00 +27°C° 0 mm 7 mps 755 mmHg 62%
19:00 +26°C° 0 mm 7 mps 756 mmHg 70%
20:00 +23°C° 0 mm 7 mps 756 mmHg 77%
21:00 +23°C° 0 mm 6 mps 756 mmHg 79%
22:00 +23°C° 0 mm 5 mps 756 mmHg 80%
23:00 +23°C° 0 mm 5 mps 757 mmHg 82%
Show more

We Need Your Consent

Meteoprog and our Service Providers may store and access personal data such as cookies, device identifiers or other similar technologies on your device and process such data to personalise content and ads, as well as provide social media features and to analyse the traffic.

  • Store and/or access information on your device

    Cookies, device identifiers or other information can be stored or accessed on your device for the purposes indicated above.

  • Personalised ads and content, ad and content measurement, audience insights, and products development

    Ads and content can be personalised based on a profile. More data can be added to better personalise ads and content. Ad and content performance can be measured. Insights about the audience who saw the ads and content can be derived. Such data can be used to develop or improve user’s experience, systems and software.

By clicking ‘I Agree’ you will allow the use of indicated cookies, device identifiers, web beacons or other similar technologies. Your settings can be changed in the browser on your device.

For certain purposes, legitimate interests may be relied on, rather than consent. You can read more about this in our Privacy and Cookie Policy.